Time,TemperatureF,DewpointF,PressureIn,WindDirection,WindDirectionDegrees,WindSpeedMPH,WindSpeedGustMPH,Humidity,HourlyPrecipIn,Conditions,Clouds,dailyrainin,SolarRadiationWatts/m^2,SoftwareType,DateUTC
2013-02-27 00:07:00,33.6,33.0,29.45,WNW,296,0.0,-999.0,96,-99.99,,,0.01,0,weatherlink.com 1.10,2013-02-27 05:07:00,
2013-02-27 00:22:00,33.5,33.0,29.45,West,260,2.0,-999.0,96,-99.99,,,0.02,0,weatherlink.com 1.10,2013-02-27 05:22:00,
2013-02-27 00:37:00,33.4,32.0,29.46,WSW,241,0.0,-999.0,96,-99.99,,,0.03,0,weatherlink.com 1.10,2013-02-27 05:37:00,
2013-02-27 00:52:00,33.2,32.0,29.46,SW,228,1.0,-999.0,96,-99.99,,,0.03,0,weatherlink.com 1.10,2013-02-27 05:52:00,
2013-02-27 01:07:00,33.0,32.0,29.47,SSW,212,2.0,-999.0,97,-99.99,,,0.03,0,weatherlink.com 1.10,2013-02-27 06:07:00,
2013-02-27 01:22:00,32.8,32.0,29.47,SSW,212,1.0,-999.0,96,-99.99,,,0.03,0,weatherlink.com 1.10,2013-02-27 06:22:00,
2013-02-27 01:37:00,32.6,32.0,29.47,SSW,211,2.0,-999.0,97,-99.99,,,0.03,0,weatherlink.com 1.10,2013-02-27 06:37:00,
2013-02-27 01:52:00,32.7,32.0,29.47,SW,215,2.0,-999.0,97,-99.99,,,0.03,0,weatherlink.com 1.10,2013-02-27 06:52:00,
2013-02-27 02:07:00,32.8,32.0,29.47,SSW,210,2.0,-999.0,97,-99.99,,,0.03,0,weatherlink.com 1.10,2013-02-27 07:07:00,
2013-02-27 02:22:00,32.9,32.0,29.48,SW,214,4.0,-999.0,97,-99.99,,,0.04,0,weatherlink.com 1.10,2013-02-27 07:22:00,
2013-02-27 02:37:00,33.0,32.0,29.47,SW,235,2.0,-999.0,97,-99.99,,,0.05,0,weatherlink.com 1.10,2013-02-27 07:37:00,
2013-02-27 02:52:00,33.0,32.0,29.47,SW,229,6.0,-999.0,97,-99.99,,,0.05,0,weatherlink.com 1.10,2013-02-27 07:52:00,
2013-02-27 03:07:00,33.1,32.0,29.47,SW,231,5.0,-999.0,97,-99.99,,,0.07,0,weatherlink.com 1.10,2013-02-27 08:07:00,
2013-02-27 03:22:00,33.2,33.0,29.47,SW,218,6.0,-999.0,97,-99.99,,,0.07,0,weatherlink.com 1.10,2013-02-27 08:22:00,
2013-02-27 03:37:00,33.3,33.0,29.47,SW,227,5.0,-999.0,97,-99.99,,,0.08,0,weatherlink.com 1.10,2013-02-27 08:37:00,
2013-02-27 03:52:00,33.3,33.0,29.47,SW,231,2.0,-999.0,97,-99.99,,,0.09,0,weatherlink.com 1.10,2013-02-27 08:52:00,
2013-02-27 04:07:00,33.3,33.0,29.47,SSW,210,5.0,-999.0,97,-99.99,,,0.09,0,weatherlink.com 1.10,2013-02-27 09:07:00,
2013-02-27 04:22:00,33.3,33.0,29.47,SSW,204,5.0,-999.0,97,-99.99,,,0.09,0,weatherlink.com 1.10,2013-02-27 09:22:00,
2013-02-27 04:37:00,33.2,33.0,29.48,SSW,208,4.0,-999.0,97,-99.99,,,0.10,0,weatherlink.com 1.10,2013-02-27 09:37:00,
2013-02-27 04:54:00,33.2,33.0,29.48,SSW,204,5.0,-999.0,97,-99.99,,,0.10,0,weatherlink.com 1.10,2013-02-27 09:54:00,
2013-02-27 05:07:00,33.3,33.0,29.49,SSW,210,7.0,-999.0,97,-99.99,,,0.10,0,weatherlink.com 1.10,2013-02-27 10:07:00,
2013-02-27 05:22:00,33.3,33.0,29.50,SW,219,7.0,-999.0,97,-99.99,,,0.11,0,weatherlink.com 1.10,2013-02-27 10:22:00,
2013-02-27 05:37:00,33.2,33.0,29.50,SW,228,6.0,-999.0,97,-99.99,,,0.11,0,weatherlink.com 1.10,2013-02-27 10:37:00,
2013-02-27 05:52:00,33.1,32.0,29.50,SSW,204,9.0,-999.0,97,-99.99,,,0.11,0,weatherlink.com 1.10,2013-02-27 10:52:00,
2013-02-27 06:07:00,33.0,32.0,29.51,SW,216,8.0,-999.0,97,-99.99,,,0.12,0,weatherlink.com 1.10,2013-02-27 11:07:00,
2013-02-27 06:22:00,33.0,32.0,29.52,WSW,237,7.0,-999.0,97,-99.99,,,0.12,0,weatherlink.com 1.10,2013-02-27 11:22:00,
2013-02-27 06:37:00,33.0,32.0,29.52,WSW,250,8.0,-999.0,97,-99.99,,,0.12,0,weatherlink.com 1.10,2013-02-27 11:37:00,
2013-02-27 06:52:00,32.9,32.0,29.52,SW,226,10.0,-999.0,97,-99.99,,,0.13,0,weatherlink.com 1.10,2013-02-27 11:52:00,
2013-02-27 07:07:00,32.9,32.0,29.52,SW,216,8.0,-999.0,97,-99.99,,,0.13,0,weatherlink.com 1.10,2013-02-27 12:07:00,
2013-02-27 07:22:00,32.9,32.0,29.53,SSW,210,5.0,-999.0,97,-99.99,,,0.13,0,weatherlink.com 1.10,2013-02-27 12:22:00,
2013-02-27 07:37:00,32.9,32.0,29.53,SW,222,8.0,-999.0,97,-99.99,,,0.13,0,weatherlink.com 1.10,2013-02-27 12:37:00,
2013-02-27 07:52:00,33.0,32.0,29.54,SW,214,11.0,-999.0,97,-99.99,,,0.13,0,weatherlink.com 1.10,2013-02-27 12:52:00,
2013-02-27 08:07:00,33.0,32.0,29.54,SSW,211,7.0,-999.0,97,-99.99,,,0.14,7,weatherlink.com 1.10,2013-02-27 13:07:00,
2013-02-27 08:22:00,33.1,32.0,29.55,SW,220,13.0,-999.0,97,-99.99,,,0.14,14,weatherlink.com 1.10,2013-02-27 13:22:00,
2013-02-27 08:37:00,33.0,32.0,29.55,SSW,204,6.0,-999.0,96,-99.99,,,0.14,30,weatherlink.com 1.10,2013-02-27 13:37:00,
2013-02-27 08:52:00,33.0,32.0,29.56,SW,226,8.0,-999.0,96,-99.99,,,0.14,39,weatherlink.com 1.10,2013-02-27 13:52:00,
2013-02-27 09:07:00,33.1,32.0,29.56,SSW,206,15.0,-999.0,97,-99.99,,,0.15,65,weatherlink.com 1.10,2013-02-27 14:07:00,
2013-02-27 09:22:00,33.2,32.0,29.56,SW,220,9.0,-999.0,96,-99.99,,,0.15,70,weatherlink.com 1.10,2013-02-27 14:22:00,
2013-02-27 09:37:00,33.2,32.0,29.57,SW,216,11.0,-999.0,96,-99.99,,,0.16,54,weatherlink.com 1.10,2013-02-27 14:37:00,
2013-02-27 09:52:00,33.2,32.0,29.57,SSW,208,13.0,-999.0,96,-99.99,,,0.16,47,weatherlink.com 1.10,2013-02-27 14:52:00,
2013-02-27 10:07:00,33.2,32.0,29.57,SW,231,15.0,-999.0,96,-99.99,,,0.17,53,weatherlink.com 1.10,2013-02-27 15:07:00,
2013-02-27 10:22:00,33.2,32.0,29.57,SSW,201,9.0,-999.0,96,-99.99,,,0.17,56,weatherlink.com 1.10,2013-02-27 15:22:00,
2013-02-27 10:37:00,33.2,32.0,29.57,SW,220,15.0,-999.0,96,-99.99,,,0.17,90,weatherlink.com 1.10,2013-02-27 15:37:00,
2013-02-27 10:52:00,33.2,32.0,29.57,SW,221,18.0,-999.0,96,-99.99,,,0.18,74,weatherlink.com 1.10,2013-02-27 15:52:00,
2013-02-27 11:07:00,33.3,32.0,29.57,SW,217,12.0,-999.0,96,-99.99,,,0.18,98,weatherlink.com 1.10,2013-02-27 16:07:00,
2013-02-27 11:22:00,33.2,32.0,29.57,SSW,210,11.0,-999.0,96,-99.99,,,0.19,56,weatherlink.com 1.10,2013-02-27 16:22:00,
2013-02-27 11:37:00,33.1,32.0,29.57,SSW,207,15.0,-999.0,96,-99.99,,,0.19,63,weatherlink.com 1.10,2013-02-27 16:37:00,
2013-02-27 11:52:00,33.2,32.0,29.57,SSW,203,13.0,-999.0,96,-99.99,,,0.19,77,weatherlink.com 1.10,2013-02-27 16:52:00,
2013-02-27 12:07:00,33.5,33.0,29.57,SW,215,10.0,-999.0,96,-99.99,,,0.19,93,weatherlink.com 1.10,2013-02-27 17:07:00,
2013-02-27 12:22:00,33.7,33.0,29.57,SW,221,13.0,-999.0,95,-99.99,,,0.19,104,weatherlink.com 1.10,2013-02-27 17:22:00,
2013-02-27 12:37:00,33.8,33.0,29.57,SSW,197,7.0,-999.0,95,-99.99,,,0.19,84,weatherlink.com 1.10,2013-02-27 17:37:00,
2013-02-27 12:52:00,33.8,32.0,29.57,SW,214,7.0,-999.0,94,-99.99,,,0.19,72,weatherlink.com 1.10,2013-02-27 17:52:00,
2013-02-27 13:06:00,34.0,33.0,29.57,SSW,205,10.0,-999.0,94,-99.99,,,0.19,76,weatherlink.com 1.10,2013-02-27 18:06:00,
2013-02-27 13:21:00,34.1,32.0,29.57,SW,230,14.0,-999.0,93,-99.99,,,0.19,56,weatherlink.com 1.10,2013-02-27 18:21:00,
2013-02-27 13:36:00,34.1,32.0,29.57,SSW,210,11.0,-999.0,93,-99.99,,,0.19,40,weatherlink.com 1.10,2013-02-27 18:36:00,
2013-02-27 13:51:00,34.2,32.0,29.58,WSW,240,5.0,-999.0,92,-99.99,,,0.19,28,weatherlink.com 1.10,2013-02-27 18:51:00,
2013-02-27 14:22:00,34.1,32.0,29.57,SSW,203,9.0,-999.0,93,-99.99,,,0.19,42,weatherlink.com 1.10,2013-02-27 19:22:00,
2013-02-27 14:37:00,34.2,32.0,29.57,SSW,212,9.0,-999.0,91,-99.99,,,0.19,56,weatherlink.com 1.10,2013-02-27 19:37:00,
2013-02-27 14:52:00,34.2,32.0,29.58,SSW,210,7.0,-999.0,91,-99.99,,,0.19,62,weatherlink.com 1.10,2013-02-27 19:52:00,
2013-02-27 15:07:00,34.1,32.0,29.58,SW,227,8.0,-999.0,90,-99.99,,,0.19,60,weatherlink.com 1.10,2013-02-27 20:07:00,
2013-02-27 15:22:00,33.9,32.0,29.58,SSW,207,11.0,-999.0,91,-99.99,,,0.19,51,weatherlink.com 1.10,2013-02-27 20:22:00,
2013-02-27 15:37:00,33.9,32.0,29.58,SW,226,11.0,-999.0,92,-99.99,,,0.19,54,weatherlink.com 1.10,2013-02-27 20:37:00,
2013-02-27 15:52:00,33.8,32.0,29.59,SW,216,7.0,-999.0,92,-99.99,,,0.19,60,weatherlink.com 1.10,2013-02-27 20:52:00,
2013-02-27 16:07:00,33.8,32.0,29.59,SSW,198,7.0,-999.0,92,-99.99,,,0.19,40,weatherlink.com 1.10,2013-02-27 21:07:00,
2013-02-27 16:22:00,33.6,32.0,29.59,SW,222,7.0,-999.0,92,-99.99,,,0.19,33,weatherlink.com 1.10,2013-02-27 21:22:00,
2013-02-27 16:37:00,33.4,31.0,29.59,SW,215,7.0,-999.0,92,-99.99,,,0.19,39,weatherlink.com 1.10,2013-02-27 21:37:00,
2013-02-27 16:52:00,33.3,31.0,29.60,WSW,243,6.0,-999.0,92,-99.99,,,0.20,40,weatherlink.com 1.10,2013-02-27 21:52:00,
2013-02-27 17:07:00,33.2,31.0,29.60,SW,226,8.0,-999.0,92,-99.99,,,0.20,44,weatherlink.com 1.10,2013-02-27 22:07:00,
2013-02-27 17:22:00,33.0,31.0,29.60,SW,216,7.0,-999.0,93,-99.99,,,0.20,32,weatherlink.com 1.10,2013-02-27 22:22:00,
2013-02-27 17:37:00,32.8,31.0,29.61,SW,230,5.0,-999.0,93,-99.99,,,0.20,28,weatherlink.com 1.10,2013-02-27 22:37:00,
2013-02-27 17:52:00,32.7,31.0,29.61,SSW,211,4.0,-999.0,93,-99.99,,,0.20,18,weatherlink.com 1.10,2013-02-27 22:52:00,
2013-02-27 18:07:00,32.5,31.0,29.62,SW,219,10.0,-999.0,94,-99.99,,,0.20,9,weatherlink.com 1.10,2013-02-27 23:07:00,
2013-02-27 18:22:00,32.3,31.0,29.62,SW,234,9.0,-999.0,94,-99.99,,,0.20,0,weatherlink.com 1.10,2013-02-27 23:22:00,
2013-02-27 18:37:00,32.2,31.0,29.62,WSW,237,8.0,-999.0,94,-99.99,,,0.20,0,weatherlink.com 1.10,2013-02-27 23:37:00,
2013-02-27 18:52:00,31.9,31.0,29.63,West,273,7.0,-999.0,95,-99.99,,,0.20,0,weatherlink.com 1.10,2013-02-27 23:52:00,
2013-02-27 19:07:00,31.8,31.0,29.63,SW,223,6.0,-999.0,95,-99.99,,,0.20,0,weatherlink.com 1.10,2013-02-28 00:07:00,
2013-02-27 19:22:00,31.7,30.0,29.63,SW,220,5.0,-999.0,94,-99.99,,,0.20,0,weatherlink.com 1.10,2013-02-28 00:22:00,
2013-02-27 19:37:00,31.6,30.0,29.64,SW,217,10.0,-999.0,95,-99.99,,,0.20,0,weatherlink.com 1.10,2013-02-28 00:37:00,
2013-02-27 19:52:00,31.6,30.0,29.64,WSW,258,8.0,-999.0,94,-99.99,,,0.20,0,weatherlink.com 1.10,2013-02-28 00:52:00,
2013-02-27 20:07:00,31.5,30.0,29.64,SW,228,6.0,-999.0,94,-99.99,,,0.20,0,weatherlink.com 1.10,2013-02-28 01:07:00,
2013-02-27 20:22:00,31.4,30.0,29.63,SW,224,5.0,-999.0,95,-99.99,,,0.20,0,weatherlink.com 1.10,2013-02-28 01:22:00,
2013-02-27 20:37:00,31.4,30.0,29.63,SW,224,10.0,-999.0,95,-99.99,,,0.20,0,weatherlink.com 1.10,2013-02-28 01:37:00,
2013-02-27 20:52:00,31.4,30.0,29.64,SW,216,9.0,-999.0,95,-99.99,,,0.20,0,weatherlink.com 1.10,2013-02-28 01:52:00,
2013-02-27 21:07:00,31.3,30.0,29.63,SW,216,9.0,-999.0,95,-99.99,,,0.20,0,weatherlink.com 1.10,2013-02-28 02:07:00,
2013-02-27 21:22:00,31.3,30.0,29.64,SW,215,7.0,-999.0,95,-99.99,,,0.20,0,weatherlink.com 1.10,2013-02-28 02:22:00,
2013-02-27 21:37:00,31.3,30.0,29.64,SW,222,8.0,-999.0,95,-99.99,,,0.20,0,weatherlink.com 1.10,2013-02-28 02:37:00,
2013-02-27 21:52:00,31.4,30.0,29.64,SW,235,5.0,-999.0,95,-99.99,,,0.20,0,weatherlink.com 1.10,2013-02-28 02:52:00,
2013-02-27 22:07:00,31.4,30.0,29.63,SSW,199,6.0,-999.0,95,-99.99,,,0.20,0,weatherlink.com 1.10,2013-02-28 03:07:00,
2013-02-27 22:22:00,31.5,30.0,29.63,SW,216,9.0,-999.0,95,-99.99,,,0.20,0,weatherlink.com 1.10,2013-02-28 03:22:00,
2013-02-27 22:37:00,31.5,30.0,29.63,SW,214,9.0,-999.0,95,-99.99,,,0.20,0,weatherlink.com 1.10,2013-02-28 03:37:00,
2013-02-27 22:52:00,31.6,30.0,29.63,SW,236,5.0,-999.0,95,-99.99,,,0.20,0,weatherlink.com 1.10,2013-02-28 03:52:00,
2013-02-27 23:07:00,31.6,30.0,29.63,WSW,238,6.0,-999.0,95,-99.99,,,0.20,0,weatherlink.com 1.10,2013-02-28 04:07:00,
2013-02-27 23:37:00,31.8,31.0,29.63,SW,220,9.0,-999.0,95,-99.99,,,0.20,0,weatherlink.com 1.10,2013-02-28 04:37:00,
2013-02-27 23:52:00,32.0,31.0,29.63,WSW,238,7.0,-999.0,95,-99.99,,,0.20,0,weatherlink.com 1.10,2013-02-28 04:52:00,